CAPE
0 0 0 0 0 2 5 16 12 0 25 48 448 191 92 316 209 234 416 340 104 371 1062 1066 1105 1300 949 833 542 121 50 59 69 113 269 536 448 492 382 314 317 348 400 430 354 159 8 0 0
0 0 0 0 0 0 0 0 4 0 10 6 785 183 176 102 163 559 545 250 152 294 633 836 966 977 1103 868 546 227 199 238 155 118 210 491 607 528 386 259 153 138 147 122 51 0 0 0 0
0 0 0 0 0 0 0 0 1 15 0 152 882 53 33 2 125 81 380 151 149 398 798 887 914 956 943 766 554 390 361 492 398 205 216 293 558 567 497 314 220 196 206 156 74 0 0 0 0
0 0 0 0 0 0 0 0 20 41 131 693 463 159 27 90 30 78 191 439 103 250 686 921 849 984 973 844 720 596 505 579 579 433 294 196 214 380 540 382 393 462 506 329 111 0 0 0 0
0 0 0 0 0 0 0 42 52 208 163 131 197 133 72 91 78 145 289 576 12 0 106 347 425 538 746 936 921 903 838 799 731 669 570 438 291 175 236 343 404 583 560 367 110 0 0 0 0
0 0 0 0 0 0 0 73 113 146 153 142 64 29 0 30 58 73 1171 412 197 96 128 77 69 113 282 524 769 856 911 843 797 701 567 437 312 235 216 267 389 509 425 308 155 100 0 0 0
0 0 0 0 0 0 0 138 120 145 165 107 1 0 0 5 30 52 497 495 376 257 159 289 398 343 144 85 92 167 306 287 157 118 142 154 132 155 212 238 254 237 220 221 218 114 0 0 18
0 0 0 0 0 0 51 175 67 128 243 145 2 0 0 0 0 69 533 527 549 617 685 253 74 47 62 135 261 129 34 56 94 96 95 103 160 241 253 186 180 227 379 439 424 172 73 60 34
0 0 0 0 0 0 0 235 277 208 212 45 22 0 0 0 0 267 372 357 367 434 376 625 820 630 414 99 206 265 458 288 257 243 282 377 240 149 179 223 182 76 159 491 490 320 217 97 63
0 0 0 0 0 0 0 84 140 53 0 8 3 20 1 0 24 324 448 528 308 196 579 576 869 755 890 794 403 431 700 114 163 307 260 307 484 436 397 586 598 482 303 472 521 556 402 357 163
0 0 0 0 0 0 0 1 100 119 31 22 35 121 38 118 125 263 348 280 89 3 52 348 406 327 703 688 677 459 80 0 0 0 0 0 94 1 0 0 396 613 620 549 551 487 534 208 72
0 0 0 0 0 0 0 97 81 186 114 36 64 137 347 146 201 286 172 50 54 47 72 142 1 281 860 402 332 70 35 45 44 1 0 0 0 34 0 4 136 428 517 430 433 203 382 122 121
0 0 0 0 0 0 30 155 314 121 106 144 309 202 64 21 41 99 103 87 100 134 122 200 254 295 407 467 179 45 51 0 0 0 12 0 0 0 0 0 30 131 342 240 154 279 558 412 292
0 0 0 0 0 0 17 153 227 427 356 226 119 45 38 27 29 62 55 31 75 136 95 190 279 246 238 81 11 0 0 0 0 8 5 0 0 0 0 0 17 79 476 56 205 357 482 479 448
0 0 0 0 0 3 222 161 92 185 182 93 27 4 23 45 40 27 2 0 1 1 1 62 162 180 138 50 7 0 0 0 0 11 0 0 0 0 0 0 1 125 380 400 321 614 772 767 457
0 0 0 0 0 0 0 296 391 167 83 120 73 49 37 0 0 0 0 0 0 0 0 0 0 78 120 39 0 0 2 0 0 15 127 18 0 0 2 19 111 286 377 427 437 446 829 818 564
0 0 0 0 0 0 0 280 206 129 107 65 0 0 0 0 0 0 0 0 0 0 0 0 0 0 0 19 76 40 50 147 216 22 0 44 164 90 179 118 166 189 193 250 297 327 562 553 514
0 0 0 0 0 0 57 224 131 3 6 2 0 0 0 0 0 0 0 0 0 0 0 0 0 0 0 0 0 0 0 0 0 0 0 0 0 0 0 1 41 48 132 94 83 175 227 361 287
0 0 0 0 9 50 194 289 62 0 0 0 0 0 0 0 0 0 0 0 0 0 0 0 0 0 0 0 0 0 0 0 0 0 0 0 0 0 0 0 0 0 0 0 0 0 47 116 14
0 0 0 0 54 208 334 238 51 0 0 0 0 0 0 0 0 0 0 0 0 0 0 0 0 0 0 0 0 0 0 0 0 0 0 0 0 0 0 0 0 0 0 0 0 0 0 1 0
0 0 0 0 5 361 311 185 46 0 0 0 0 0 0 0 0 0 0 0 0 0 0 0 0 0 0 0 0 0 0 0 0 0 0 0 0 0 0 0 0 0 0 0 0 0 0 0 0
0 0 0 0 0 103 121 98 4 0 0 0 0 0 0 0 0 0 0 0 0 0 0 0 0 0 0 0 0 0 0 0 0 0 0 0 0 0 0 0 0 0 0 0 0 0 0 0 0
0 0 0 0 0 0 0 0 104 0 0 0 0 0 0 0 0 0 0 0 0 0 0 0 0 0 0 0 0 0 0 0 0 0 0 0 0 0 0 0 0 0 0 0 0 0 0 0 0
0 0 0 0 0 0 0 0 59 20 0 0 0 0 0 0 0 0 0 0 0 0 0 0 0 0 0 0 0 0 0 0 0 0 0 0 0 0 0 0 0 0 0 0 0 0 0 0 0
0 0 0 0 0 0 0 0 0 46 0 0 0 0 0 0 0 0 0 0 0 0 0 0 0 0 0 0 0 0 0 0 0 0 0 0 0 0 0 0 0 0 0 0 0 0 0 0 0
0 0 0 0 0 0 0 0 4 1 0 0 0 0 0 0 0 0 0 0 0 0 0 0 0 0 0 0 0 0 0 0 0 0 0 0 0 0 0 0 0 0 0 0 0 2 5 6 1
0 0 0 0 0 0 0 0 0 0 0 0 0 0 0 0 0 0 0 0 0 0 0 0 0 0 0 0 0 0 0 0 0 0 0 0 0 0 0 0 0 0 0 0 0 0 0 2 6
0 0 0 0 0 0 0 0 0 0 0 0 0 0 0 0 0 0 0 0 0 0 0 0 0 0 0 0 0 0 0 0 0 0 0 0 0 0 0 0 0 0 0 0 0 0 3 3 1
0 0 0 0 0 0 0 0 0 0 0 0 0 0 0 0 0 0 0 0 0 0 0 0 0 0 0 0 0 0 0 0 0 1 1 0 0 0 0 0 0 0 0 0 0 0 0 0 0
0 0 0 0 0 0 0 0 0 0 0 0 0 0 0 0 0 0 0 0 0 0 0 0 0 0 0 0 0 0 0 0 0 0 0 0 0 0 0 0 0 0 0 0 0 0 0 0 0
CIN
-0 -0 -0 -0 -0 -16 -66 -119 -229 -0 -120 -186 -88 -181 -243 -250 -133 -75 -177 -282 -396 -230 -113 -122 -119 -99 -136 -144 -186 -349 -437 -436 -422 -388 -284 -167 -201 -179 -213 -220 -196 -146 -109 -89 -106 -199 -239 -0 -0
-0 -0 -0 -0 -0 -0 -0 -0 -91 -0 -125 -145 -125 -170 -214 -207 -232 -56 -96 -229 -323 -264 -212 -171 -124 -118 -90 -118 -179 -279 -295 -264 -310 -335 -267 -137 -93 -115 -165 -222 -272 -264 -240 -229 -261 -0 -0 -0 -0
-0 -0 -0 -0 -0 -0 -0 -0 -13 -159 -0 -133 -152 -146 -303 -331 -234 -176 -75 -218 -274 -156 -131 -147 -129 -116 -113 -127 -163 -213 -227 -189 -191 -247 -224 -177 -90 -85 -101 -147 -183 -197 -174 -190 -234 -0 -0 -0 -0
-0 -0 -0 -0 -0 -0 -0 -0 -85 -138 -182 -161 -218 -176 -266 -324 -346 -193 -90 -101 -229 -211 -131 -97 -112 -107 -114 -127 -144 -165 -176 -159 -138 -160 -201 -237 -217 -144 -95 -112 -110 -86 -78 -129 -212 -0 -0 -0 -0
-0 -0 -0 -0 -0 -0 -0 -85 -129 -97 -214 -279 -310 -334 -305 -251 -210 -138 -114 -110 -200 -0 -290 -213 -199 -175 -135 -105 -96 -80 -73 -88 -114 -118 -134 -158 -182 -204 -163 -108 -78 -49 -49 -99 -230 -0 -0 -0 -0
-0 -0 -0 -0 -0 -0 -0 -153 -127 -146 -246 -227 -296 -450 -0 -353 -281 -264 -132 -182 -310 -328 -295 -312 -326 -304 -237 -167 -108 -95 -77 -74 -63 -71 -84 -104 -129 -163 -173 -150 -103 -60 -64 -85 -168 -203 -0 -0 -0
-0 -0 -0 -0 -0 -0 -0 -186 -184 -145 -202 -251 -71 -0 -0 -73 -388 -306 -104 -141 -204 -240 -299 -219 -164 -197 -265 -295 -291 -254 -193 -175 -179 -170 -152 -153 -183 -161 -133 -132 -125 -134 -132 -108 -90 -165 -0 -0 -336
-0 -0 -0 -0 -0 -0 -76 -105 -117 -128 -191 -427 -21 -0 -0 -0 -0 -232 -127 -140 -151 -127 -105 -206 -308 -354 -361 -256 -165 -204 -252 -231 -218 -218 -201 -186 -169 -124 -91 -111 -135 -101 -62 -50 -48 -118 -209 -208 -287
-0 -0 -0 -0 -0 -0 -0 -83 -265 -308 -254 -421 -456 -0 -0 -0 -0 -203 -189 -190 -224 -251 -243 -197 -156 -173 -206 -304 -279 -214 -76 -111 -116 -86 -71 -43 -56 -96 -99 -91 -86 -106 -77 -42 -43 -67 -83 -164 -195
-0 -0 -0 -0 -0 -0 -0 -65 -160 -224 -46 -413 -240 -359 -94 -0 -189 -179 -128 -135 -182 -258 -301 -240 -251 -228 -169 -187 -227 -153 -182 -296 -218 -160 -185 -133 -49 -16 -32 -40 -39 -33 -39 -30 -34 -40 -67 -74 -114
-0 -0 -0 -0 -0 -0 -0 -8 -124 -166 -163 -224 -268 -309 -304 -261 -281 -177 -174 -268 -363 -208 -339 -245 -238 -281 -150 -126 -115 -217 -415 -0 -21 -112 -0 -0 -266 -51 -0 -0 -24 -8 -13 -24 -39 -56 -55 -89 -97
-0 -0 -0 -0 -0 -0 -0 -139 -132 -102 -135 -317 -320 -289 -232 -286 -289 -289 -348 -386 -401 -358 -370 -281 -30 -176 -91 -140 -197 -338 -318 -309 -250 -30 -0 -45 -14 -252 -0 -47 -6 -14 -11 -16 -28 -67 -77 -111 -94
-0 -0 -0 -0 -0 -0 -126 -128 -185 -206 -280 -323 -245 -315 -435 -520 -519 -475 -550 -575 -459 -391 -456 -334 -189 -222 -192 -129 -244 -345 -350 -116 -0 -45 -324 -0 -109 -0 -0 -0 -105 -15 -25 -60 -73 -33 -52 -71 -85
-0 -0 -0 -0 -0 -0 -133 -229 -188 -183 -252 -341 -391 -453 -475 -533 -586 -594 -606 -604 -531 -482 -500 -390 -331 -330 -281 -349 -451 -65 -0 -0 -0 -424 -436 -0 -0 -0 -0 -0 -99 -60 -10 -66 -51 -38 -26 -50 -84
-0 -0 -0 -0 -0 -46 -244 -226 -249 -288 -312 -365 -362 -172 -486 -563 -649 -698 -281 -0 -52 -51 -48 -577 -476 -388 -389 -416 -320 -0 -0 -0 -0 -415 -0 -0 -0 -0 -0 -0 -66 -107 -39 -9 -18 -19 -22 -32 -67
-0 -0 -0 -0 -0 -0 -0 -134 -128 -242 -266 -290 -385 -465 -549 -17 -0 -0 -0 -0 -0 -0 -0 -0 -0 -516 -348 -403 -0 -0 -52 -0 -0 -186 -103 -136 -0 -0 -27 -66 -103 -83 -64 -31 -32 -42 -33 -32 -49
-0 -0 -0 -0 -0 -0 -0 -171 -219 -278 -304 -427 -0 -0 -0 -0 -0 -0 -0 -0 -0 -0 -0 -0 -0 -0 -0 -470 -278 -338 -241 -121 -76 -99 -0 -83 -69 -137 -62 -71 -64 -79 -83 -69 -68 -61 -36 -27 -28
-0 -0 -0 -0 -0 -0 -167 -220 -270 -68 -232 -237 -0 -0 -0 -0 -0 -0 -0 -0 -0 -0 -0 -0 -0 -0 -0 -0 -0 -0 -0 -0 -0 -0 -0 -0 -0 -0 -0 -9 -129 -168 -140 -142 -125 -76 -52 -13 -17
-0 -0 -0 -0 -118 -116 -177 -195 -300 -0 -0 -0 -0 -0 -0 -0 -0 -0 -0 -0 -0 -0 -0 -0 -0 -0 -0 -0 -0 -0 -0 -0 -0 -0 -0 -0 -0 -0 -0 -0 -0 -0 -0 -0 -0 -0 -101 -56 -102
-0 -0 -0 -0 -75 -125 -196 -196 -307 -0 -0 -0 -0 -0 -0 -0 -0 -0 -0 -0 -0 -0 -0 -0 -0 -0 -0 -0 -0 -0 -0 -0 -0 -0 -0 -0 -0 -0 -0 -0 -0 -0 -0 -0 -0 -0 -0 -0 -0
-0 -0 -0 -0 -60 -195 -193 -207 -258 -0 -0 -0 -0 -0 -0 -0 -0 -0 -0 -0 -0 -0 -0 -0 -0 -0 -0 -0 -0 -0 -0 -0 -0 -0 -0 -0 -0 -0 -0 -0 -0 -0 -0 -0 -0 -0 -0 -0 -0
-0 -0 -0 -0 -0 -52 -87 -66 -301 -0 -0 -0 -0 -0 -0 -0 -0 -0 -0 -0 -0 -0 -0 -0 -0 -0 -0 -0 -0 -0 -0 -0 -0 -0 -0 -0 -0 -0 -0 -0 -0 -0 -0 -0 -0 -0 -0 -0 -0
-0 -0 -0 -0 -0 -0 -0 -0 -167 -0 -0 -0 -0 -0 -0 -0 -0 -0 -0 -0 -0 -0 -0 -0 -0 -0 -0 -0 -0 -0 -0 -0 -0 -0 -0 -0 -0 -0 -0 -0 -0 -0 -0 -0 -0 -0 -0 -0 -0
-0 -0 -0 -0 -0 -0 -0 -0 -169 -248 -0 -0 -0 -0 -0 -0 -0 -0 -0 -0 -0 -0 -0 -0 -0 -0 -0 -0 -0 -0 -0 -0 -0 -0 -0 -0 -0 -0 -0 -0 -0 -0 -0 -0 -0 -0 -0 -0 -0
-0 -0 -0 -0 -0 -0 -0 -0 -0 -232 -0 -0 -0 -0 -0 -0 -0 -0 -0 -0 -0 -0 -0 -0 -0 -0 -0 -0 -0 -0 -0 -0 -0 -0 -0 -0 -0 -0 -0 -0 -0 -0 -0 -0 -0 -0 -0 -0 -0
-0 -0 -0 -0 -0 -0 -0 -0 -25 -9 -0 -0 -0 -0 -0 -0 -0 -0 -0 -0 -0 -0 -0 -0 -0 -0 -0 -0 -0 -0 -0 -0 -0 -0 -0 -0 -0 -0 -0 -0 -0 -0 -0 -0 -0 -50 -46 -37 -33
-0 -0 -0 -0 -0 -0 -0 -0 -0 -0 -0 -0 -0 -0 -0 -0 -0 -0 -0 -0 -0 -0 -0 -0 -0 -0 -0 -0 -0 -0 -0 -0 -0 -0 -0 -0 -0 -0 -0 -0 -0 -0 -0 -0 -0 -0 -5 -38 -28
-0 -0 -0 -0 -0 -0 -0 -0 -0 -0 -0 -0 -0 -0 -0 -0 -0 -0 -0 -0 -0 -0 -0 -0 -0 -0 -0 -0 -0 -0 -0 -0 -0 -0 -0 -0 -0 -0 -0 -0 -0 -0 -0 -0 -0 -0 -42 -36 -59
-0 -0 -0 -0 -0 -0 -0 -0 -0 -0 -0 -0 -0 -0 -0 -0 -0 -0 -0 -0 -0 -0 -0 -0 -0 -0 -0 -0 -0 -0 -0 -0 -0 -32 -47 -6 -0 -0 -0 -0 -0 -0 -0 -0 -0 -0 -0 -20 -0
-0 -0 -0 -0 -0 -0 -0 -0 -0 -0 -0 -0 -0 -0 -0 -0 -0 -0 -0 -0 -0 -0 -0 -0 -0 -0 -0 -0 -1 -0 -0 -0 -0 -1 -3 -0 -0 -0 -0 -9 -0 -0 -0 -0 -0 -0 -0 -0 -0
Wind_Speed
22 13 15 17 18 19 21 19 20 18 19 3 15 20 23 23 22 20 16 13 14 10 11 11 11 10 9 9 10 11 12 12 12 12 11 11 11 12 12 12 13 13 13 12 12 12 13 13 12
22 19 15 17 18 21 24 18 13 9 18 23 21 19 22 24 27 16 16 11 12 13 15 14 13 12 10 10 10 10 10 10 11 11 10 10 10 10 11 11 12 12 12 12 13 13 13 13 13
24 17 17 16 17 22 27 23 8 16 19 20 15 24 24 24 26 19 13 10 12 11 13 15 15 14 13 11 10 10 10 10 10 10 10 10 10 10 10 11 11 11 11 12 13 14 15 15 15
21 18 17 16 24 26 28 29 18 14 21 22 17 23 23 24 17 17 15 9 10 12 13 13 14 14 13 13 12 11 10 10 11 11 11 10 11 10 11 11 11 11 11 12 14 15 16 17 18
21 18 18 20 23 24 33 21 17 16 19 23 17 20 20 20 20 17 12 9 13 13 13 14 14 14 13 12 12 12 12 12 11 12 12 12 12 13 12 12 12 13 13 14 15 15 17 17 18
21 19 21 20 23 28 28 15 19 17 17 19 23 21 21 19 17 17 19 16 15 15 14 14 14 14 14 13 13 13 13 13 14 14 15 15 15 15 14 13 14 15 16 16 16 16 17 17 18
20 20 20 24 24 24 25 16 19 18 18 22 18 22 20 21 21 21 19 20 18 17 17 16 16 16 15 14 14 14 14 14 15 16 17 17 17 17 17 17 16 16 16 17 18 18 18 17 19
19 19 21 16 19 22 22 18 15 18 19 18 19 20 18 18 20 23 21 23 20 20 19 17 15 15 15 16 16 15 15 16 17 17 19 20 20 20 20 20 20 20 21 20 20 20 20 21 20
16 20 23 17 17 21 25 19 21 18 18 20 21 19 20 23 23 22 18 19 20 20 19 17 14 12 13 15 15 15 18 18 19 20 21 23 24 24 24 24 24 24 22 22 21 20 22 22 22
12 16 22 16 22 27 31 18 15 16 16 20 22 22 23 24 24 21 17 17 17 19 18 14 9 10 14 15 15 16 17 21 22 22 24 25 26 28 30 32 33 31 29 24 23 22 22 24 24
17 18 27 27 28 26 28 17 16 13 14 14 17 18 19 20 20 18 16 18 20 18 20 19 17 16 16 15 15 16 20 23 21 24 25 26 25 29 30 37 34 32 32 26 23 24 22 23 22
23 30 31 31 29 28 25 15 13 12 14 16 17 18 17 17 16 14 16 20 19 20 21 22 22 19 18 16 17 16 19 23 24 25 25 26 27 28 34 37 33 38 31 26 24 24 21 18 21
22 30 31 33 26 15 15 14 13 14 16 16 15 16 18 18 19 18 19 20 20 22 23 23 20 18 19 18 18 18 20 25 25 25 28 27 30 32 23 28 28 30 22 21 24 25 19 19 22
24 23 22 12 10 12 12 12 12 11 13 16 17 18 19 20 20 20 21 22 23 23 24 24 23 22 20 21 21 21 22 23 26 25 26 24 23 24 19 13 29 26 24 23 23 22 23 23 22
25 19 19 17 13 7 12 16 11 12 13 15 16 18 19 21 22 23 23 24 25 24 23 25 24 24 23 22 21 22 25 24 24 23 23 23 23 20 18 15 17 18 23 18 20 16 17 21 23
21 17 17 17 12 10 8 6 9 11 13 13 15 16 18 21 22 22 23 24 25 24 24 25 25 25 23 21 20 21 22 22 21 24 24 23 23 25 26 27 29 30 30 18 23 18 10 6 6
16 19 19 21 11 6 7 5 7 10 11 12 14 16 19 22 23 23 24 24 25 25 24 24 26 25 23 21 20 20 22 23 23 26 27 28 25 27 26 26 26 28 25 22 22 21 13 14 18
17 20 17 22 10 2 5 4 9 9 9 11 12 15 19 21 22 23 23 23 23 25 25 24 24 26 24 21 19 20 23 24 25 28 29 29 30 30 28 26 27 26 26 26 28 25 24 21 24
21 18 21 16 9 7 5 7 7 6 7 10 12 15 16 19 20 21 22 23 24 25 26 26 25 26 25 24 22 21 22 25 27 29 30 30 31 30 29 29 30 30 29 30 31 31 30 27 32
16 17 17 12 8 10 9 6 6 6 7 9 11 13 15 17 18 20 21 23 25 25 26 26 26 26 26 25 25 23 24 26 28 29 31 32 32 30 31 32 32 33 32 33 32 33 33 31 33
17 17 16 11 11 9 8 13 8 8 9 11 12 13 14 16 18 18 20 22 24 24 26 26 26 26 27 27 27 26 25 27 29 31 33 34 34 32 34 35 36 36 35 35 35 35 35 37 34
16 16 13 12 10 9 10 16 9 6 10 10 10 12 13 15 16 17 19 21 23 24 25 26 26 26 27 28 28 29 29 31 32 33 33 34 34 35 34 35 35 35 35 37 37 35 36 37 39
14 17 18 19 19 16 13 17 10 7 10 9 9 12 13 14 16 17 19 20 22 24 26 26 27 28 28 29 30 31 32 32 33 34 35 35 35 35 35 35 34 35 35 34 34 35 35 34 34
17 18 19 20 21 24 26 22 11 8 8 6 8 9 10 14 16 17 19 21 23 25 26 26 27 28 29 31 32 33 33 34 34 35 35 35 35 34 34 35 33 32 32 31 30 30 30 29 30
19 22 24 22 20 20 24 19 17 18 7 5 6 8 10 12 15 18 19 22 24 26 27 28 29 30 32 34 34 35 35 35 35 35 35 36 35 34 34 33 33 32 32 32 30 29 28 26 26
18 17 17 19 20 20 22 20 21 19 5 5 6 8 10 12 14 18 19 21 24 27 28 29 31 33 34 35 36 35 35 34 34 34 33 33 33 32 32 31 30 30 29 30 29 28 28 27 28
19 22 15 17 18 19 18 18 17 12 10 6 7 9 12 12 15 17 19 22 24 27 30 31 34 35 36 35 35 35 35 35 34 33 33 31 31 30 30 29 29 28 29 29 30 29 30 30 30
17 17 19 19 20 22 19 17 16 9 7 7 9 9 11 12 15 16 19 22 25 28 31 33 34 34 35 35 34 33 33 33 32 31 31 31 31 30 29 29 28 29 29 29 31 30 30 29 29
20 19 18 17 17 19 23 18 16 3 3 5 6 7 9 12 13 16 18 22 26 29 31 33 34 33 33 33 32 33 31 31 31 29 29 28 28 29 29 29 28 28 30 30 30 30 30 30 29
16 19 17 18 19 20 21 21 21 5 1 2 4 8 12 11 13 16 18 22 27 29 32 32 31 32 31 31 30 31 29 29 27 27 26 26 27 29 30 29 29 29 30 30 30 29 30 30 30
Wind_Direction
351 54 59 26 346 343 329 355 13 24 4 185 322 41 38 15 323 321 329 28 70 42 35 33 36 39 50 49 45 45 43 45 47 50 51 47 48 45 43 43 42 38 34 29 22 14 8 7 6
341 6 21 352 331 325 325 357 25 109 28 351 355 358 12 349 344 333 329 355 35 53 58 51 43 41 36 36 37 36 35 32 33 34 33 33 31 30 28 29 28 27 24 11 359 353 352 348 347
314 354 341 338 335 314 318 341 26 352 349 358 4 350 357 6 352 313 322 3 25 7 30 48 49 45 43 33 23 22 21 18 13 13 9 6 7 7 8 8 10 13 6 360 353 341 331 330 328
316 322 326 330 308 320 332 287 358 357 345 4 32 358 17 13 66 337 268 328 18 15 16 27 32 34 33 38 32 17 9 6 4 2 360 355 352 353 352 354 357 355 353 350 341 335 331 322 316
314 317 310 310 308 332 327 347 11 359 355 358 18 10 25 45 63 57 273 276 49 36 30 29 29 27 23 17 15 11 8 9 7 358 353 349 343 337 338 337 335 335 331 329 329 328 324 322 318
298 301 295 299 310 324 330 15 17 9 13 6 9 22 32 50 47 45 92 71 41 43 34 31 34 31 23 13 3 1 357 353 347 344 339 336 334 333 333 333 330 325 322 321 321 321 321 321 320
294 298 295 278 292 320 333 22 21 21 3 355 26 7 30 23 25 65 69 65 56 42 33 20 20 27 27 26 22 13 5 356 347 341 337 335 335 330 326 325 324 322 319 316 314 316 319 321 320
293 297 286 297 308 317 333 351 16 2 0 23 12 5 23 45 53 74 75 67 54 49 44 35 25 26 28 21 11 9 3 353 347 343 337 333 331 330 326 321 317 315 312 312 312 312 314 312 314
302 287 271 286 314 321 325 349 340 354 8 2 8 35 65 73 68 77 72 53 47 48 49 29 27 20 10 6 9 2 353 351 345 339 335 331 325 321 321 318 313 309 309 309 310 312 311 311 310
303 290 268 289 296 290 311 341 14 4 15 20 39 56 70 72 69 76 66 57 48 32 34 43 74 23 354 350 354 359 344 343 342 342 337 333 327 322 318 310 302 300 299 304 307 309 308 309 310
288 284 250 260 266 308 316 1 4 38 22 47 70 72 76 60 57 58 57 38 14 24 17 10 11 13 351 355 2 0 349 334 340 333 327 333 327 328 328 323 311 303 292 296 302 306 309 310 312
275 235 240 242 278 308 318 4 13 43 53 62 69 66 52 42 38 25 10 10 8 6 3 359 359 15 13 5 360 358 348 339 337 328 336 328 329 320 320 314 309 291 287 293 301 305 313 315 312
287 250 258 251 300 352 11 11 48 49 58 59 51 39 36 30 24 25 26 8 357 355 352 346 356 10 7 5 358 358 351 332 332 329 329 328 327 327 331 344 289 290 305 309 308 308 318 314 309
292 291 281 320 332 347 38 28 19 39 63 46 48 45 39 30 25 12 360 355 355 354 350 347 345 346 358 359 358 351 348 349 339 341 341 347 352 356 2 0 285 330 326 321 319 315 307 301 304
288 302 298 300 313 33 57 357 47 73 61 51 47 42 35 26 11 3 5 1 355 356 353 348 338 341 344 347 353 352 348 347 354 0 4 4 2 4 21 12 351 353 342 342 322 332 329 313 307
298 310 302 309 314 317 349 15 58 70 76 51 51 40 28 17 13 11 7 3 358 353 348 343 337 340 345 354 0 2 3 1 9 9 7 5 6 352 338 331 316 325 309 352 338 337 352 340 330
314 306 305 305 316 340 345 76 80 76 73 54 44 33 22 12 5 2 1 359 359 358 354 350 346 342 343 356 357 5 7 3 8 5 2 359 1 352 352 346 337 336 348 351 347 341 341 332 323
323 332 327 312 320 359 32 40 108 99 78 57 45 31 20 19 18 20 22 13 9 4 5 2 354 346 345 352 2 8 6 1 359 357 352 352 351 349 347 345 345 347 345 340 335 335 331 327 319
300 324 332 343 72 51 74 99 104 87 57 35 28 17 21 25 23 22 26 24 17 12 12 9 2 355 354 348 342 348 354 351 351 350 350 345 342 344 344 342 340 337 335 332 327 323 323 320 316
322 322 331 6 54 63 59 46 41 33 26 24 21 21 20 28 22 25 27 25 18 14 14 7 2 359 356 354 350 347 346 346 346 345 343 342 343 343 341 338 336 333 329 325 327 325 320 316 320
320 320 327 343 14 70 44 343 351 4 9 11 13 17 18 18 23 29 27 26 21 14 10 9 3 357 355 353 350 349 348 346 343 342 338 337 337 337 335 332 327 325 325 323 322 321 318 313 314
315 333 335 339 338 330 328 319 325 342 346 355 11 19 19 19 25 28 29 24 26 24 17 10 5 360 355 353 349 345 342 339 339 338 339 339 338 335 334 332 330 328 325 320 317 317 315 314 310
323 325 313 309 309 313 321 321 319 326 327 339 5 10 23 22 25 27 25 28 22 17 12 7 2 358 354 351 348 341 337 335 336 336 334 336 336 337 336 336 335 333 331 328 324 321 317 314 312
327 324 321 317 312 303 301 307 301 304 309 336 354 7 18 19 21 24 23 23 15 12 10 5 360 355 354 350 346 343 339 338 337 337 337 337 339 340 341 340 340 340 340 338 336 333 330 325 320
326 315 307 313 314 317 316 320 324 305 320 339 5 22 20 24 17 15 16 13 11 8 4 1 358 353 350 346 343 340 339 339 338 338 338 339 340 341 341 343 342 343 346 346 346 345 345 343 339
334 335 325 318 316 316 324 322 321 327 337 360 6 6 8 13 13 10 14 9 9 4 0 358 356 351 347 344 341 341 341 342 343 344 344 344 344 344 345 347 350 352 355 356 359 3 2 3 358
331 329 343 329 329 322 324 328 338 346 350 1 358 1 359 4 4 11 10 6 4 358 355 353 349 347 345 344 342 342 341 341 343 344 345 347 346 350 351 352 356 358 356 360 2 6 3 4 4
339 344 336 335 322 319 324 325 325 327 328 332 333 340 347 358 8 9 4 1 357 355 353 350 348 347 346 345 344 344 343 345 346 345 342 343 343 344 347 351 356 357 2 6 3 4 5 7 7
331 333 338 343 338 327 322 327 340 302 308 323 336 347 356 356 5 357 359 357 356 357 354 353 352 351 349 350 351 350 350 347 344 348 346 344 347 353 355 359 3 4 3 2 5 7 9 8 6
341 330 335 328 327 328 325 324 332 341 286 2 4 358 354 6 10 5 1 358 357 355 353 354 355 355 358 356 354 348 350 351 353 358 356 354 3 8 10 11 9 8 9 10 12 11 8 7 5